Wind_Speed
24 24 24 24 24 23 23 22 22 21 21 20 19 19 18 17 17 17 17 17 16 16 16 16 15 15 15 15 15 16 16 17 17 17 17 17 18 19 20 20 20 20 21 21 22 23 23 23 23 23 23 23 23 24 24 24 23 23 22 21 19 20 22 24 23 23 23 22 22 21 22 21 21 22 22 19 20 22 22 23 25 24 22 22 22 20 16 16
27 27 27 26 26 26 25 24 23 22 21 21 20 20 19 19 19 19 19 19 19 18 18 18 18 18 18 18 18 18 19 20 20 20 20 20 21 22 22 23 23 23 23 24 24 25 25 25 25 25 25 25 25 25 25 24 23 23 22 20 19 22 23 24 25 26 25 24 23 22 23 24 23 23 24 23 22 22 21 23 25 25 26 24 23 21 17 16
28 28 28 27 27 26 26 25 24 23 22 22 21 21 21 21 21 21 21 21 21 21 21 21 21 20 21 21 21 21 22 23 23 23 23 23 24 24 25 25 25 25 25 25 26 26 27 27 26 26 26 26 25 24 24 24 22 22 22 21 22 24 25 26 27 27 27 25 25 25 24 25 26 25 24 26 25 22 22 25 27 26 27 27 24 21 18 16
28 28 27 27 26 26 25 25 24 24 23 23 23 23 23 23 23 23 23 23 23 23 23 23 23 23 23 23 23 24 25 26 26 25 26 26 26 27 27 26 26 26 27 27 28 28 28 28 27 26 26 26 25 24 23 24 23 23 23 23 24 26 27 28 29 29 28 27 26 27 27 26 27 26 26 27 25 22 23 26 29 28 28 28 25 23 21 19
28 28 28 27 27 26 26 26 25 25 25 25 25 25 25 25 25 25 25 26 25 25 25 25 25 25 25 25 26 26 27 28 28 27 28 28 29 29 29 29 29 29 29 29 29 29 28 28 27 26 25 25 25 24 24 25 25 24 24 26 26 28 29 29 31 31 30 29 28 29 29 28 28 27 27 28 24 22 25 28 31 31 29 28 25 24 24 23
30 29 29 29 28 28 27 27 27 27 27 27 27 27 28 28 28 28 28 28 28 28 28 28 28 28 28 27 28 28 28 31 31 29 30 31 32 32 32 32 32 31 31 30 29 28 27 27 26 26 25 24 25 26 26 26 27 25 25 29 30 31 32 30 31 30 31 30 29 30 30 30 30 28 27 28 26 24 27 29 31 32 31 30 26 25 25 25
32 32 32 31 31 31 30 30 30 30 30 30 30 30 31 31 31 31 32 32 31 31 31 31 30 30 30 30 30 30 30 34 35 33 33 34 34 34 34 33 33 32 31 30 28 27 26 26 26 26 25 25 26 27 28 29 30 29 27 30 32 33 33 32 31 30 31 31 30 31 31 30 32 30 26 26 29 29 29 29 31 32 31 31 29 27 27 26
35 35 35 34 34 34 34 34 33 33 33 33 33 34 34 34 35 35 35 35 35 35 34 34 34 33 33 32 33 32 32 36 38 36 34 35 34 34 33 32 32 30 29 28 27 26 26 26 27 27 27 27 29 29 30 31 32 32 30 32 33 32 33 33 32 30 31 31 32 33 31 31 34 34 28 25 30 32 29 28 31 32 30 30 30 29 28 27
38 38 38 37 37 37 37 36 36 36 36 35 35 35 35 36 36 36 37 37 37 37 37 37 37 36 36 35 35 33 33 36 37 36 35 33 32 31 30 29 29 28 27 27 26 26 27 29 29 30 31 30 31 31 33 34 33 33 33 34 33 32 31 32 32 31 33 32 34 36 32 31 35 36 29 26 31 32 29 29 29 32 32 31 31 29 29 28
39 39 39 39 39 38 38 38 37 37 36 35 35 34 34 34 34 35 35 36 36 36 37 37 37 37 36 36 35 31 32 35 35 34 33 31 29 28 27 27 27 27 27 27 27 29 30 32 33 33 33 32 32 32 34 35 34 34 35 35 33 33 32 31 32 32 34 35 35 38 37 32 34 37 30 27 33 32 30 29 28 30 30 31 31 30 30 30
38 38 38 38 38 38 38 37 37 36 35 34 34 33 33 33 33 33 33 33 34 34 34 34 34 34 33 32 30 28 29 32 32 32 31 30 29 28 27 28 28 28 29 29 30 32 34 35 35 36 35 34 33 34 34 35 36 35 36 37 34 34 33 31 33 34 35 37 35 38 41 36 34 36 33 30 33 33 32 30 30 29 28 29 30 31 31 31
38 38 38 38 37 37 37 37 37 36 36 35 35 35 35 35 34 34 34 33 33 33 33 33 32 32 31 29 26 27 29 30 31 32 32 31 30 30 30 30 31 32 33 34 34 35 37 37 37 37 37 36 35 36 36 35 37 36 37 39 36 35 35 32 35 36 35 38 37 39 44 40 36 36 34 33 33 32 33 31 30 31 29 28 29 30 31 31
39 39 39 38 38 38 38 38 38 38 38 38 38 38 38 38 37 37 36 36 35 35 35 34 33 33 32 28 26 29 30 30 32 33 33 34 33 33 34 34 35 36 36 37 37 37 38 39 39 39 39 39 38 38 38 37 39 37 37 42 39 37 37 33 36 36 35 38 38 41 46 44 41 39 35 34 34 32 33 31 29 30 31 30 30 31 31 31
42 42 41 41 41 41 41 41 41 41 41 41 41 41 41 40 40 40 39 39 38 38 38 37 36 36 34 31 29 31 32 34 34 35 36 36 36 36 37 37 38 38 38 39 39 39 40 40 41 41 41 41 41 41 41 41 42 39 38 42 42 42 40 35 37 36 34 37 39 42 47 47 44 41 37 35 34 33 34 32 30 30 30 31 32 33 32 31
42 43 43 43 43 43 43 43 43 43 43 43 43 43 43 42 42 42 41 41 41 40 40 40 39 40 38 35 33 34 36 37 37 38 39 39 39 39 39 40 40 39 40 40 40 41 41 42 43 43 43 43 42 42 43 43 44 41 41 43 44 45 44 39 39 38 35 37 40 43 47 48 44 41 40 36 35 35 35 33 32 31 30 29 31 33 33 32
41 41 42 42 43 43 43 43 44 44 44 44 44 44 44 43 43 43 43 42 42 42 42 41 41 42 41 38 36 37 37 38 39 40 40 41 41 40 41 41 41 41 42 42 42 43 43 44 45 44 45 44 42 43 45 46 44 42 44 46 45 45 46 44 43 41 38 37 40 44 46 47 44 41 41 37 34 37 36 33 33 33 32 30 30 32 33 35
41 41 41 42 42 42 42 43 43 43 44 44 44 44 44 44 44 43 43 43 43 43 43 43 43 43 43 40 39 39 38 39 41 42 41 42 42 42 42 43 43 44 44 44 44 45 44 45 46 46 46 44 42 44 47 48 45 44 46 48 48 47 47 47 45 44 43 42 42 44 45 45 43 42 42 38 34 36 37 34 32 33 34 33 33 33 34 36
42 42 42 42 42 43 43 43 44 44 44 44 44 44 44 44 44 44 45 44 44 44 44 45 44 44 45 43 42 41 40 41 42 43 43 43 43 43 43 44 45 45 45 46 46 46 46 46 48 47 46 44 42 45 48 48 47 47 48 49 50 49 48 48 47 45 46 47 47 46 46 46 47 46 44 42 40 40 41 39 36 35 36 36 36 36 36 37
42 42 43 43 43 44 44 44 44 45 45 45 45 45 45 46 45 45 46 45 44 45 46 46 45 46 47 46 45 43 42 43 44 44 43 43 44 44 45 45 45 45 47 46 47 48 46 47 49 48 46 44 43 45 47 48 48 49 49 50 51 51 51 50 48 47 48 50 49 48 48 48 49 49 47 46 45 44 44 44 42 39 39 39 39 39 39 39
43 44 44 44 44 45 45 45 45 45 45 45 45 45 46 46 45 46 46 44 44 45 46 46 46 45 46 47 47 45 44 45 45 44 43 43 44 45 45 46 45 45 46 46 48 48 45 47 50 49 46 45 45 46 48 49 49 49 49 50 51 51 52 51 50 50 50 52 51 50 50 50 50 49 48 48 48 48 47 46 45 44 42 42 42 42 41 40
46 46 46 47 47 47 47 47 46 46 46 46 46 46 46 46 46 47 47 44 44 44 45 46 47 46 44 47 49 45 45 46 45 43 42 43 43 44 46 45 45 45 45 47 49 47 46 47 49 49 48 45 44 46 49 50 50 50 50 51 52 52 51 51 51 53 53 53 52 51 52 53 52 50 50 50 49 50 49 48 48 47 46 45 44 44 41 40
48 48 48 49 49 49 50 49 49 48 48 48 48 47 48 48 48 48 49 47 45 45 46 46 47 47 46 48 48 46 47 47 46 44 43 43 44 44 47 46 46 46 47 48 48 47 48 48 48 49 49 46 45 47 49 51 51 51 52 53 53 53 53 52 53 54 56 56 55 54 54 55 54 52 53 53 51 50 51 50 49 48 48 47 45 43 41 39
50 50 50 51 51 51 52 52 51 51 51 50 50 50 50 50 50 50 51 51 48 47 48 48 49 50 50 50 49 47 48 48 47 46 44 44 46 46 48 48 46 45 47 48 47 47 49 49 49 50 49 48 49 49 49 50 51 51 52 54 54 52 53 54 54 54 55 56 58 58 57 57 55 55 55 55 53 52 53 54 54 52 49 47 45 44 43 41
52 52 52 52 53 53 53 54 54 54 53 52 52 52 52 53 53 53 54 55 53 50 49 50 52 54 53 53 52 49 49 49 49 48 45 44 46 46 46 47 47 45 46 48 48 47 48 48 49 50 52 51 50 49 48 49 50 50 50 51 52 51 51 53 54 55 55 56 57 59 59 58 56 55 54 53 52 53 55 56 57 56 52 48 47 46 45 44
52 53 54 54 54 54 55 55 55 55 54 54 54 54 55 55 56 56 56 57 58 55 53 53 54 55 55 54 53 51 50 49 48 48 46 44 44 44 43 44 45 44 44 46 47 47 46 45 44 46 49 51 50 48 47 49 49 49 49 49 50 51 52 53 54 56 56 56 57 58 59 59 56 54 52 50 50 51 54 55 54 53 51 49 48 46 44 43
52 53 53 53 54 54 55 55 55 54 55 54 54 54 55 56 56 56 57 58 60 58 56 54 51 51 51 50 49 48 47 46 45 45 44 42 42 43 42 42 43 43 44 45 46 46 45 44 43 44 46 48 48 47 47 48 49 49 48 48 48 50 51 52 53 54 55 55 56 56 58 59 58 54 51 49 50 51 54 55 53 52 50 49 48 45 43 43
49 49 49 50 52 52 52 51 50 51 53 52 52 53 53 52 53 53 53 54 57 57 56 53 49 46 45 44 45 45 44 44 44 43 43 43 43 43 44 43 42 42 43 44 45 46 45 44 44 45 45 45 45 45 46 47 48 48 48 47 48 48 49 51 52 53 54 55 55 55 54 57 58 56 53 52 52 54 55 53 52 52 50 50 49 46 43 41
46 45 46 47 47 46 47 47 47 48 49 49 49 49 49 49 49 49 49 51 55 56 53 50 48 46 43 42 43 44 44 45 45 45 45 44 44 44 43 43 41 40 41 42 44 45 44 43 43 44 44 43 43 44 45 46 47 48 48 48 49 49 49 50 51 52 53 55 56 54 53 54 56 56 55 54 55 56 55 52 50 50 51 50 49 48 45 39
43 44 44 44 43 43 44 46 46 46 46 47 47 47 47 47 48 47 47 51 55 56 52 49 47 46 45 44 45 45 45 46 46 46 45 45 44 43 43 42 42 41 41 42 43 43 44 44 43 42 42 43 43 43 43 44 46 47 47 48 49 51 51 51 53 53 54 56 57 54 53 54 56 56 55 55 55 56 56 54 50 49 50 49 47 47 47 42
43 43 44 44 43 43 45 45 45 45 45 46 47 48 48 49 49 48 50 53 54 54 52 50 48 46 45 46 46 46 46 47 47 47 47 46 46 45 44 44 43 43 43 43 43 43 45 46 45 44 44 44 43 43 43 44 46 48 50 51 52 53 53 54 54 54 55 57 56 54 54 55 57 57 56 55 54 55 54 53 50 47 48 48 47 46 45 43
45 45 45 45 43 43 44 44 45 45 46 46 47 48 49 50 50 52 55 55 52 51 52 51 49 47 46 47 47 48 48 48 48 48 48 48 47 47 46 46 46 46 46 46 45 45 46 46 46 45 45 45 44 45 47 49 51 53 54 55 56 56 56 56 56 56 57 57 55 55 57 58 60 59 57 55 53 54 55 52 49 47 47 47 48 47 45 43
47 49 49 48 47 45 44 43 43 45 46 46 46 48 50 51 52 54 56 53 50 51 52 50 49 48 48 48 48 49 49 49 49 48 48 49 49 49 49 49 49 49 48 49 48 49 48 48 47 46 45 45 47 50 53 56 57 57 55 55 55 56 56 56 56 57 57 56 56 58 59 60 61 59 56 54 52 54 56 53 49 49 49 48 48 48 48 48
48 49 50 50 50 48 46 45 44 44 45 45 45 47 50 53 55 56 55 52 50 51 50 49 49 48 48 49 50 50 50 50 51 51 52 52 53 53 52 51 51 52 52 52 52 51 51 51 50 49 47 48 52 56 59 60 59 56 53 52 53 53 53 54 53 53 53 53 54 56 57 58 57 55 55 54 51 52 54 53 51 50 51 52 51 52 52 53
47 49 49 49 49 49 48 47 44 43 44 45 44 43 47 53 56 56 53 51 49 47 46 46 47 47 49 50 50 51 51 52 53 53 54 54 54 54 53 52 52 53 53 52 51 52 52 51 51 51 52 54 56 58 58 57 56 54 52 51 50 49 49 50 51 51 52 53 52 52 54 56 54 52 53 53 52 52 55 56 55 54 55 57 57 57 57 58
48 49 49 49 48 48 48 47 45 43 43 42 42 42 46 51 52 51 49 48 46 45 44 44 46 47 49 50 50 51 50 50 51 50 50 51 52 52 51 51 51 50 47 46 47 48 49 50 52 54 56 55 53 51 50 49 49 50 49 49 48 47 47 50 53 53 53 56 55 52 53 54 53 52 53 55 55 54 56 57 57 58 57 58 59 60 60 61
48 50 51 51 50 48 47 47 47 47 45 43 42 43 44 46 46 46 46 45 44 43 43 44 45 47 48 48 49 49 48 48 48 48 47 47 48 49 48 47 47 46 45 45 46 48 50 52 53 53 53 51 48 47 46 45 46 48 47 48 48 49 50 53 55 54 54 58 58 54 55 55 54 55 56 56 57 56 56 56 57 58 58 58 59 60 61 62
48 48 49 50 51 51 50 49 49 50 50 49 48 47 46 45 45 45 45 45 45 44 43 45 46 46 46 47 49 50 49 49 48 48 48 48 49 47 45 44 45 47 48 48 49 50 51 52 51 49 49 49 48 48 49 49 49 50 50 49 50 52 53 53 55 55 56 59 59 57 57 58 57 58 57 56 57 56 56 54 53 54 55 56 58 59 60 60
54 52 51 50 51 52 52 53 53 53 53 54 54 53 51 49 47 49 50 50 48 46 46 48 48 48 48 50 51 52 52 51 50 50 49 49 49 49 47 47 49 49 50 51 51 51 52 52 51 50 51 52 51 52 53 54 53 53 53 51 50 52 54 53 55 56 57 59 60 57 56 56 57 56 54 54 53 52 51 50 49 50 51 53 54 56 57 56
56 55 54 52 52 51 51 52 54 55 57 58 57 55 54 53 52 54 54 52 49 48 49 51 51 52 52 52 52 54 54 53 52 52 51 50 50 51 50 51 52 52 53 53 54 54 55 56 56 54 54 55 55 55 56 55 54 55 55 53 51 52 52 51 52 53 55 56 57 56 55 55 53 50 50 51 49 48 48 48 49 50 51 52 52 52 53 55
54 54 53 52 52 53 52 53 55 57 60 59 57 57 57 56 55 54 54 52 49 49 52 53 53 54 53 52 52 53 54 54 53 53 53 53 53 54 54 55 56 56 57 58 58 58 58 59 60 59 59 59 58 56 55 55 56 56 55 53 51 51 50 50 51 50 50 53 53 54 55 51 46 46 49 49 47 47 48 49 52 53 54 53 52 51 50 52
55 56 56 55 55 56 56 57 58 59 60 60 59 59 57 56 55 55 54 51 47 48 53 55 56 56 55 55 54 54 55 56 55 56 56 56 58 59 59 59 60 60 61 61 61 62 61 60 61 62 62 61 59 56 55 55 56 55 54 51 48 49 49 50 52 50 48 51 52 54 56 51 44 45 49 49 49 50 51 53 56 56 55 53 52 52 52 53
57 57 56 56 56 57 58 59 59 60 61 60 59 59 57 57 57 55 53 49 45 49 55 57 57 58 58 57 57 58 59 60 60 61 62 62 63 64 65 65 65 65 64 62 63 64 62 61 61 61 60 60 59 57 55 55 53 51 51 50 48 48 48 49 52 51 49 52 53 54 58 55 48 47 49 50 51 52 54 56 56 56 55 55 55 57 59 61
58 60 59 59 60 61 63 63 62 62 62 60 59 59 58 59 58 56 55 52 49 50 55 58 58 60 62 62 62 62 63 65 66 66 67 67 67 68 69 68 67 67 65 64 63 62 60 58 59 59 58 57 57 55 53 53 52 50 50 50 49 49 49 49 52 53 54 56 55 57 61 58 52 51 51 51 52 53 54 55 54 55 56 57 59 62 64 66
65 67 65 65 65 66 66 64 63 63 61 60 60 59 59 59 59 58 58 57 55 54 56 58 61 63 64 64 64 65 66 68 69 70 70 69 69 69 67 65 64 63 62 62 60 58 55 55 56 56 55 55 54 52 51 52 51 50 50 50 49 49 49 50 51 51 54 56 53 54 59 55 51 52 52 51 52 53 54 55 56 58 60 62 65 67 69 70
70 71 69 67 66 66 65 62 62 63 61 60 61 60 59 60 59 58 58 58 58 57 57 60 62 65 66 67 68 69 70 71 72 72 72 70 69 67 64 63 62 61 59 58 56 55 54 53 53 54 54 54 53 51 50 51 52 52 52 51 51 50 50 52 54 55 58 59 56 57 61 60 57 58 58 58 60 61 61 62 63 65 67 68 68 69 70 71
70 70 68 66 66 65 63 62 63 63 61 62 62 61 60 60 60 59 60 59 59 59 60 61 63 65 67 69 71 71 72 72 72 72 71 70 68 65 64 63 62 59 57 56 54 53 54 54 53 53 55 55 54 52 51 52 56 56 54 53 53 53 53 56 60 62 63 66 66 65 66 68 66 63 63 65 67 69 69 69 70 71 71 72 72 73 73 74
69 69 67 66 67 66 64 63 63 63 62 63 63 61 61 61 61 61 61 61 60 60 61 62 63 64 66 67 68 69 69 69 69 68 66 65 65 64 63 61 59 56 54 53 53 53 54 54 53 54 56 56 56 55 54 55 58 59 58 56 54 54 56 58 62 64 64 68 70 67 66 69 68 65 65 67 69 70 71 71 71 72 72 73 74 75 76 78
68 69 68 68 68 68 66 65 65 65 64 64 64 64 64 64 64 63 62 61 61 61 62 63 63 64 64 64 65 66 65 65 65 64 62 62 62 61 59 57 55 54 53 53 53 53 54 55 53 55 58 57 57 57 57 58 60 60 59 59 58 58 59 60 63 64 65 69 72 68 67 70 69 67 67 69 69 70 71 71 71 72 72 73 74 75 76 77
70 70 71 71 70 69 68 67 68 68 68 67 68 68 68 67 67 66 65 64 63 62 63 63 63 63 63 63 63 63 63 62 61 60 60 59 59 58 56 55 54 54 53 54 54 54 56 56 55 57 59 58 57 58 59 61 62 61 61 61 60 60 61 62 63 63 65 69 71 70 70 71 69 68 70 71 70 71 72 72 73 73 74 75 76 77 78 79
72 72 72 72 72 72 71 70 70 71 70 71 72 71 70 69 68 67 67 67 65 64 63 62 62 62 62 61 61 61 61 61 60 59 59 58 57 56 55 55 55 54 54 55 56 57 58 58 58 60 61 60 57 59 61 62 63 63 62 62 62 62 62 63 63 63 66 69 70 71 73 73 71 71 73 73 73 73 75 76 76 77 78 79 80 81 82 83
74 74 74 75 74 74 74 73 73 73 74 74 74 73 71 70 68 67 68 69 68 66 64 63 62 62 61 61 60 61 61 61 60 59 58 56 55 55 55 55 55 56 56 56 58 58 59 60 60 61 64 62 58 59 63 63 64 65 64 62 61 62 63 64 64 65 67 69 70 72 74 75 74 75 76 76 77 77 78 80 81 82 83 84 85 85 85 86
76 76 76 76 76 76 76 76 76 76 76 75 73 71 70 70 68 67 68 68 68 66 65 63 62 62 61 61 60 61 60 59 57 56 56 55 55 55 56 56 56 56 57 58 59 59 59 61 61 61 65 64 59 61 65 66 68 69 65 62 61 62 64 66 67 67 67 69 71 74 76 78 79 80 81 81 81 81 82 83 84 85 87 87 87 87 87 88
Wind_Direction
258 260 261 262 263 265 266 267 269 270 271 271 272 271 270 269 268 266 264 263 263 263 264 265 267 269 272 275 277 280 282 283 284 285 287 290 290 290 291 292 293 294 294 294 294 294 293 293 292 292 291 290 290 290 289 290 290 290 291 293 296 292 291 294 296 294 294 297 299 299 298 300 301 300 305 309 303 301 305 304 303 304 303 299 300 307 309 299
260 261 262 263 264 264 265 266 266 266 266 266 266 266 265 265 264 263 263 263 263 263 263 265 267 269 270 273 275 278 280 281 282 284 284 285 286 287 288 289 290 291 291 292 291 291 291 291 290 290 289 288 288 288 288 288 288 288 289 291 291 288 291 294 295 295 296 298 298 295 294 297 298 298 303 305 302 302 304 300 298 301 301 300 302 308 314 309
259 261 261 262 263 263 264 264 264 264 264 263 263 263 263 262 262 263 263 264 264 264 265 266 268 269 270 272 274 276 278 279 280 282 283 282 283 283 284 285 287 288 288 289 289 289 289 288 288 287 287 287 286 286 286 286 285 285 288 290 288 288 291 292 292 294 296 298 296 294 294 294 295 297 299 300 302 304 303 298 297 298 299 302 307 310 314 310
258 259 259 260 261 261 262 262 263 263 263 263 263 264 264 264 264 265 265 266 266 266 266 267 269 270 271 272 273 275 277 279 280 281 281 281 281 280 281 283 284 285 286 287 287 287 286 285 285 284 285 285 286 285 283 282 282 283 286 287 287 289 291 292 293 294 295 295 294 294 293 292 292 295 295 295 303 308 301 296 295 295 296 302 310 313 312 309
257 257 258 259 259 260 260 261 262 262 263 264 264 265 266 266 267 267 268 268 268 268 268 268 269 270 271 271 273 274 276 278 278 279 280 280 281 280 281 283 283 284 284 284 284 283 283 282 282 282 282 283 284 283 281 280 280 282 286 287 287 288 290 293 294 295 295 294 294 293 291 292 291 292 293 294 304 308 298 292 292 294 296 300 307 311 310 310
257 257 258 258 259 260 261 261 262 263 263 264 265 266 266 267 267 268 268 268 269 269 269 269 270 270 271 272 273 274 277 279 277 277 279 279 280 281 282 282 282 283 282 282 281 280 280 280 281 281 282 283 282 282 282 281 281 282 285 286 288 289 291 292 291 293 293 292 292 290 291 293 292 292 294 298 305 300 291 288 288 293 297 300 304 307 307 307
258 258 259 259 260 261 261 262 263 264 264 265 266 266 267 268 268 268 268 269 269 269 269 269 270 270 271 272 273 275 278 279 278 277 278 278 279 279 280 280 280 280 280 279 279 278 279 280 281 282 284 284 283 283 284 283 283 285 284 284 287 289 291 291 291 291 290 290 290 288 291 294 293 294 298 304 302 292 286 287 288 290 293 296 300 304 305 305
258 258 259 260 260 261 261 262 262 263 264 265 266 267 267 268 268 269 269 269 269 269 270 270 270 270 270 271 273 275 277 277 277 278 277 277 277 277 278 278 278 278 278 277 277 277 279 280 281 284 285 285 285 286 285 284 285 287 286 285 286 288 289 290 291 290 288 289 289 288 291 294 295 296 302 305 295 289 288 288 289 289 289 291 295 300 301 301
258 259 259 260 260 261 261 262 262 263 264 265 265 266 267 267 268 268 269 269 269 269 270 270 270 270 271 272 273 275 276 275 276 277 276 275 275 275 276 276 276 276 276 277 277 278 280 281 283 285 285 285 286 286 286 286 286 288 287 286 287 287 287 288 289 289 287 287 288 289 290 293 295 296 303 303 292 290 291 289 288 289 291 291 293 295 297 297
258 259 260 260 261 261 262 262 263 263 263 264 264 264 265 266 267 267 268 269 269 269 269 270 270 270 271 272 273 274 273 273 274 276 276 275 274 274 274 274 274 274 275 276 278 280 281 282 284 284 285 285 286 286 286 287 288 288 287 287 289 288 287 287 287 286 286 287 288 290 290 291 292 294 300 299 292 292 292 289 287 287 291 293 293 293 292 292
259 259 260 261 261 262 262 262 262 263 262 262 263 263 264 265 266 267 268 269 270 270 270 270 270 271 271 271 273 273 270 271 273 274 275 275 275 275 275 275 275 275 275 276 278 280 281 282 283 283 284 284 284 284 284 286 287 287 288 288 288 288 287 288 287 284 286 288 288 289 289 289 290 292 297 297 293 294 293 292 291 289 290 290 291 291 290 290
259 259 260 261 261 261 262 262 262 262 262 262 263 264 265 266 267 268 269 270 271 271 271 272 272 271 271 271 273 271 268 269 272 274 275 276 276 277 276 276 277 278 278 279 279 280 281 281 283 283 284 284 284 283 283 284 284 285 287 286 285 285 285 285 284 284 286 288 288 288 287 287 287 288 292 293 291 292 292 292 292 292 291 288 288 287 288 289
258 259 260 260 261 261 262 262 262 262 263 264 265 266 266 267 268 268 269 270 270 271 271 272 272 271 271 271 270 269 270 270 270 273 274 275 277 277 278 278 278 279 280 281 281 281 281 283 284 284 285 285 285 284 285 285 284 285 286 285 285 283 281 282 282 283 286 286 288 288 286 288 288 289 292 292 292 292 290 289 288 287 288 288 287 286 286 286
259 259 260 260 261 261 262 262 263 264 264 265 266 266 267 267 268 268 268 269 269 270 270 271 271 271 271 270 269 269 270 271 271 273 275 276 277 277 278 279 279 280 280 281 281 281 282 283 284 285 286 286 286 287 287 287 285 286 286 285 286 284 282 282 281 282 284 285 286 285 285 286 287 290 292 292 293 292 289 288 287 285 285 286 287 286 285 283
260 260 261 261 261 262 263 263 264 265 265 266 267 267 268 268 268 269 269 269 269 270 270 271 271 271 271 271 270 269 269 271 273 274 275 276 277 278 278 278 279 280 280 280 281 281 282 283 283 284 284 285 286 287 288 286 286 288 287 284 284 285 286 285 283 283 283 284 284 283 283 284 287 291 292 294 297 293 289 289 289 288 286 285 285 285 285 283
262 262 263 263 263 264 264 265 265 266 267 267 268 268 269 269 269 270 270 270 270 271 271 272 272 272 272 272 270 270 270 272 273 273 273 274 276 277 277 278 279 279 279 280 280 281 282 282 282 283 283 284 286 287 286 285 286 289 287 285 285 286 288 289 288 288 287 284 282 281 282 285 289 291 292 294 295 291 289 291 293 293 290 288 286 284 284 284
262 263 264 264 265 265 266 266 266 267 268 268 269 269 270 270 270 271 271 271 272 272 273 273 273 273 274 273 272 271 271 271 271 272 273 274 275 275 276 277 278 278 279 279 279 280 281 281 282 282 282 284 287 287 286 286 288 288 286 287 288 288 289 290 291 293 294 291 287 284 284 287 290 290 290 292 290 286 287 289 289 289 290 289 287 286 285 284
262 262 263 264 265 265 266 266 267 267 268 268 269 269 270 270 270 271 271 272 273 274 274 273 274 274 274 274 273 272 271 271 271 272 273 274 275 276 276 277 277 278 278 279 280 280 280 281 281 281 282 285 286 285 285 287 288 287 287 288 288 289 290 290 291 294 294 292 290 289 290 292 292 292 294 296 295 292 292 294 292 291 290 289 289 287 285 284
263 263 263 264 264 264 265 265 266 266 266 267 267 268 269 269 270 270 270 271 272 273 273 273 273 274 275 275 273 272 272 271 271 272 274 275 275 276 276 276 277 277 278 279 279 278 279 281 280 281 283 284 284 283 283 285 285 286 286 287 287 288 289 289 291 291 290 288 288 289 290 290 290 292 294 295 295 293 293 294 295 295 293 291 290 288 286 285
265 264 264 265 265 265 265 265 265 266 266 266 267 268 268 268 269 269 269 269 270 271 272 273 272 272 274 275 274 273 272 271 271 272 273 274 275 275 275 276 277 277 278 279 278 278 279 280 280 282 282 282 283 284 284 283 283 284 285 285 286 286 287 289 290 289 287 286 287 288 288 287 287 289 292 292 293 293 293 295 295 295 292 290 289 286 285 286
265 265 265 264 264 265 266 266 266 267 268 268 268 268 269 269 269 269 270 269 269 271 272 273 274 273 273 273 273 274 274 272 272 273 273 273 274 276 277 277 277 278 278 278 278 280 280 279 281 282 281 282 283 283 283 283 284 285 285 285 285 286 288 289 290 288 287 287 287 288 288 288 288 290 291 291 292 292 293 294 294 293 291 289 287 285 285 284
266 265 265 265 265 265 266 266 267 268 268 268 269 269 270 270 270 271 271 271 270 271 272 273 275 276 275 273 274 275 275 275 275 274 274 275 277 277 278 278 278 278 278 278 279 281 281 280 280 281 282 284 282 281 281 282 283 284 284 285 285 287 288 288 288 288 289 289 289 289 288 288 290 292 292 293 295 297 296 295 293 292 292 292 291 291 291 289
265 265 266 266 266 266 266 266 267 267 267 268 269 270 271 272 272 273 274 274 272 271 273 274 275 275 275 275 276 276 275 276 276 276 276 277 278 277 277 278 277 277 278 278 279 279 279 280 280 281 282 282 280 280 280 281 282 283 283 284 286 287 287 287 287 287 288 289 290 290 290 290 292 293 294 297 300 300 299 298 297 297 297 298 299 300 301 301
264 264 264 265 265 266 266 267 267 267 268 269 269 270 271 273 274 274 275 275 274 273 273 274 275 275 275 276 277 277 277 277 278 278 278 277 277 277 277 278 277 277 277 277 277 276 276 278 280 281 282 281 280 280 281 281 281 282 282 284 285 285 285 286 286 287 287 287 288 289 289 290 292 293 295 298 300 299 298 297 298 299 301 302 302 304 305 307
262 262 263 264 265 265 266 266 266 267 268 269 269 270 271 272 273 274 275 275 274 274 274 274 274 275 275 276 277 278 279 279 279 280 280 279 279 278 277 277 277 278 277 276 277 277 276 276 276 278 280 282 283 283 282 282 282 283 283 284 284 284 284 284 285 285 286 286 287 288 288 289 290 292 295 297 297 296 295 295 296 297 299 300 301 303 305 307
262 263 264 263 264 265 265 266 267 268 268 268 269 270 271 272 272 273 274 274 274 275 275 274 273 273 274 276 277 278 279 280 280 280 281 281 281 280 279 279 279 279 278 278 278 279 278 277 276 275 276 278 281 282 283 283 283 284 284 284 284 284 285 285 285 285 285 286 287 288 289 289 291 294 296 296 294 292 293 294 295 297 298 300 301 302 304 304
263 264 264 263 263 264 266 267 268 268 267 268 269 269 270 271 272 272 274 275 275 275 276 276 276 275 275 276 277 279 280 281 282 282 283 283 282 282 281 281 281 280 280 280 280 280 279 278 278 277 277 277 279 281 282 283 284 285 285 285 285 284 284 284 284 285 285 285 286 287 289 290 291 293 295 295 293 292 291 293 296 299 301 302 303 304 303 303
260 260 261 261 263 265 267 267 268 267 267 268 268 268 270 270 272 273 274 275 275 274 275 277 279 280 280 280 280 280 282 283 284 285 284 284 283 283 283 283 282 282 282 282 282 282 282 280 279 279 280 280 281 282 282 284 284 285 286 286 286 285 284 284 284 284 284 285 285 287 289 289 289 291 293 294 293 293 294 296 299 301 302 302 303 302 300 302
258 259 260 262 264 266 267 268 268 268 268 269 269 269 270 270 272 273 273 273 273 274 276 279 281 282 283 283 283 284 284 284 284 284 284 283 283 283 283 283 283 283 282 282 282 283 283 283 282 282 282 282 283 283 283 284 284 285 286 286 286 285 285 284 284 284 284 284 285 287 289 289 288 288 290 291 293 295 297 299 302 302 301 301 300 300 300 302
260 260 260 262 263 264 265 266 267 269 269 269 269 269 269 270 271 272 271 271 272 275 278 279 280 282 284 285 285 284 283 281 281 281 282 283 283 283 282 283 283 283 282 282 282 282 283 284 284 284 284 283 283 283 283 284 286 288 288 287 286 285 284 283 283 283 283 284 286 287 287 287 286 286 287 289 293 295 296 299 301 301 300 299 299 300 302 302
256 256 257 258 259 260 260 262 265 268 269 268 268 269 270 271 270 270 270 271 274 275 276 278 280 282 283 283 282 281 280 279 279 279 280 281 281 281 281 281 281 282 282 283 283 282 282 283 283 282 282 281 281 282 283 286 288 289 288 286 285 283 282 281 281 281 281 283 285 284 284 283 282 283 285 288 292 294 293 295 297 297 296 297 298 299 299 298
254 255 257 258 258 259 259 260 262 265 266 268 269 269 269 269 270 270 270 272 274 275 277 279 280 281 280 278 277 277 277 278 278 279 279 280 280 281 281 280 281 281 282 282 283 282 283 283 280 279 279 279 281 283 286 289 289 288 287 285 283 282 281 280 280 281 282 283 281 279 279 280 281 283 286 289 292 293 294 294 295 296 296 295 295 295 294 292
257 257 258 259 259 260 260 260 260 262 265 268 269 269 269 269 269 269 270 271 272 275 277 278 278 277 277 276 276 276 276 277 278 279 279 279 279 279 280 281 282 283 283 284 284 283 282 280 279 279 280 282 285 288 290 289 289 287 284 283 282 282 282 281 282 283 282 281 279 279 280 280 282 286 289 291 292 293 294 294 294 295 295 293 291 290 289 287
260 260 261 261 261 259 259 259 261 263 264 262 260 259 262 266 267 268 270 271 271 273 274 275 276 276 275 275 275 276 277 277 278 278 279 279 279 280 281 283 285 285 285 285 283 282 280 279 280 281 282 284 286 287 287 285 283 282 281 281 281 281 282 283 283 281 280 279 278 280 282 283 286 289 290 291 292 292 292 293 293 291 289 288 288 286 285 284
260 261 262 263 261 259 258 258 258 259 257 253 250 249 254 261 265 267 270 271 272 274 274 274 274 274 274 275 276 277 278 279 279 279 279 280 280 282 284 284 283 282 280 278 276 276 278 279 281 282 283 285 285 283 280 279 278 277 277 278 280 282 282 281 281 281 281 281 279 279 280 283 286 287 288 290 290 289 288 289 288 286 284 283 283 282 281 280
257 258 260 261 260 259 258 256 255 255 253 251 251 252 255 260 263 266 269 271 274 276 278 277 275 275 276 278 279 279 277 276 276 275 275 276 276 277 279 278 277 276 275 275 276 277 279 281 283 285 285 285 284 282 280 279 279 279 279 280 282 283 282 282 283 283 283 282 282 283 283 285 286 287 287 288 287 286 285 284 283 282 281 280 279 278 277 277
251 252 255 257 257 257 256 254 254 254 254 254 255 256 257 259 263 267 269 272 275 279 280 277 276 278 278 278 276 274 273 272 272 272 271 271 271 271 273 272 273 276 278 280 282 282 282 284 285 286 285 285 285 285 285 284 283 283 284 284 283 282 282 283 283 283 283 282 284 286 286 287 289 289 289 287 286 286 285 282 279 278 278 279 278 277 277 276
253 254 257 257 256 255 255 255 254 255 257 256 256 258 260 262 265 269 271 274 278 282 279 275 276 276 275 274 273 271 271 271 270 269 268 268 269 271 271 272 273 276 279 280 282 283 283 284 284 284 284 285 286 286 286 286 286 286 285 284 282 281 282 283 282 282 283 283 285 287 286 288 290 289 289 288 287 286 284 280 277 276 277 277 276 276 276 276
258 260 261 261 260 258 257 257 258 259 260 259 260 262 265 267 269 271 274 277 280 280 277 274 274 274 273 272 270 269 270 271 270 269 269 268 270 272 272 274 276 278 279 280 282 283 285 284 283 283 284 285 286 287 287 287 286 285 284 284 283 281 281 280 279 280 282 282 284 285 285 288 290 288 287 288 285 283 282 280 279 280 279 276 275 274 275 276
260 259 259 259 260 260 259 260 260 262 263 263 266 268 269 271 272 274 276 278 280 279 276 274 273 272 272 270 267 266 267 268 268 269 272 273 275 276 275 277 280 281 283 285 287 287 287 286 285 285 285 286 287 288 287 285 284 285 285 284 282 281 281 279 278 280 280 279 279 280 282 286 287 285 286 285 281 279 279 279 280 281 279 278 278 277 277 277
254 256 256 257 258 260 261 261 262 263 264 265 267 270 273 274 275 276 276 277 278 274 271 271 271 270 269 268 267 266 266 267 269 270 273 275 278 281 281 281 283 285 287 289 289 289 288 287 287 288 288 288 288 288 286 284 285 286 284 282 281 281 281 279 280 282 279 275 276 278 279 280 279 279 282 279 277 277 277 277 278 278 277 276 276 276 276 275
250 251 253 255 257 260 262 262 263 265 265 266 269 273 275 276 275 275 274 273 271 266 264 266 268 268 268 268 269 269 269 271 272 273 274 275 278 281 282 283 285 287 288 288 287 287 287 286 286 287 287 287 287 287 286 284 284 284 281 280 280 279 279 278 279 281 278 275 277 277 275 275 276 276 277 274 273 274 274 275 275 275 275 273 272 272 273 274
253 251 251 254 258 261 263 263 265 265 267 268 270 272 272 272 273 273 273 271 267 262 261 264 266 266 267 268 269 269 270 272 272 273 274 276 278 281 283 284 285 286 286 285 285 285 285 284 284 284 284 285 286 286 285 283 282 281 278 278 279 278 278 277 277 278 276 275 276 274 272 273 274 274 273 272 271 269 269 269 269 269 270 270 270 271 272 273
257 255 255 257 260 262 263 264 266 266 267 268 268 269 270 270 271 271 271 270 268 265 262 261 262 262 263 264 265 267 270 273 274 275 277 279 280 282 283 284 284 284 284 283 283 283 282 280 281 281 281 283 285 285 284 282 280 277 275 275 275 276 276 276 275 274 274 273 272 270 269 271 273 273 274 273 269 266 265 265 265 267 268 268 269 271 272 273
256 258 259 260 261 261 262 264 265 266 267 268 268 268 268 268 269 269 269 268 267 266 263 260 260 261 262 264 266 269 272 276 278 278 279 281 282 282 283 283 283 283 282 282 282 281 279 278 279 279 279 281 283 284 282 279 276 273 272 272 273 274 274 273 272 271 270 271 268 266 268 272 272 273 275 274 271 269 269 268 269 270 269 269 269 270 271 271
255 258 259 261 262 263 264 265 266 267 268 268 269 269 269 269 268 268 267 266 266 266 265 263 263 263 263 264 267 269 271 273 275 277 278 279 280 281 280 280 281 280 280 280 280 278 277 277 278 279 278 280 282 282 280 277 274 273 272 273 274 274 273 272 272 271 271 271 269 269 271 273 273 273 274 272 272 273 273 272 271 271 271 270 270 269 270 270
256 258 260 262 263 264 265 266 267 269 269 269 270 270 270 269 269 268 267 267 267 267 267 267 267 266 267 268 268 269 271 272 273 275 276 277 277 277 277 278 278 278 278 277 275 275 274 275 277 277 276 277 279 279 277 275 273 273 274 276 277 277 276 275 274 274 274 273 273 274 275 275 275 275 274 272 272 273 273 272 272 271 271 271 270 270 270 270
258 260 262 263 264 265 266 267 269 269 269 270 270 271 271 271 271 271 270 270 270 269 269 269 270 269 270 271 271 271 272 272 273 274 275 275 275 275 275 275 275 274 274 273 273 273 273 274 276 274 273 275 277 277 277 274 272 273 275 277 279 279 279 278 276 275 275 275 276 278 277 276 276 277 275 273 272 272 273 273 273 273 272 272 272 272 272 272
260 262 263 264 264 266 267 268 268 269 269 270 270 271 273 273 273 273 273 272 272 272 272 272 272 271 271 271 272 272 272 273 273 274 274 273 273 273 274 273 273 273 273 273 273 273 273 274 275 273 273 275 276 276 276 274 273 273 275 277 280 282 282 279 277 278 278 278 279 280 279 278 279 278 277 275 275 275 276 276 276 276 276 276 276 276 276 275
261 262 263 264 265 266 266 267 267 268 269 269 270 272 273 273 274 275 274 274 274 274 273 273 273 272 272 271 271 271 271 272 272 272 272 272 272 272 272 272 272 273 273 273 273 273 274 275 275 274 274 274 275 276 274 273 274 274 275 278 282 283 282 281 280 281 279 279 280 281 280 280 281 279 278 278 279 279 279 280 280 280 280 279 279 278 278 277
262 263 263 264 265 265 266 267 267 268 268 269 271 272 272 272 273 273 273 273 274 274 273 272 272 271 271 270 270 270 271 271 271 271 271 271 271 270 270 270 271 272 273 273 272 273 274 275 275 275 275 275 276 275 273 273 273 273 276 282 284 283 281 281 280 279 279 280 282 282 282 283 283 281 280 281 281 282 282 283 283 283 282 281 280 280 279 279
262 262 263 264 264 265 265 266 266 266 268 269 270 270 270 270 271 270 271 272 272 272 271 270 270 269 269 268 268 269 270 270 270 270 270 269 269 269 269 270 271 272 273 273 273 274 275 275 275 275 275 276 277 275 275 274 273 275 282 286 284 282 281 280 279 280 281 283 283 284 284 284 283 282 283 284 285 285 285 285 285 285 284 283 282 282 282 281
Height
5865 5865 5866 5866 5867 5867 5868 5868 5868 5869 5869 5870 5870 5870 5871 5871 5871 5871 5871 5872 5872 5872 5872 5872 5872 5872 5872 5872 5872 5872 5872 5871 5871 5871 5871 5871 5871 5870 5870 5870 5870 5870 5869 5869 5869 5868 5868 5868 5868 5868 5868 5867 5867 5866 5866 5865 5865 5864 5864 5864 5864 5863 5861 5860 5860 5860 5860 5860 5860 5859 5858 5858 5857 5856 5856 5856 5855 5854 5853 5852 5850 5850 5850 5850 5849 5848 5849 5849
5862 5863 5864 5864 5865 5865 5866 5866 5866 5867 5867 5868 5868 5868 5869 5869 5869 5869 5870 5870 5870 5870 5870 5870 5870 5870 5870 5870 5870 5870 5870 5869 5869 5869 5869 5869 5869 5868 5868 5868 5868 5868 5867 5867 5867 5866 5866 5866 5866 5866 5866 5865 5865 5864 5863 5863 5863 5862 5863 5863 5862 5860 5859 5859 5858 5857 5857 5858 5858 5857 5856 5856 5855 5854 5853 5853 5853 5853 5852 5851 5848 5848 5847 5847 5848 5847 5847 5847
5860 5861 5861 5862 5862 5863 5863 5864 5864 5865 5865 5865 5866 5866 5866 5867 5867 5867 5868 5868 5868 5868 5868 5869 5869 5869 5869 5869 5868 5868 5868 5867 5867 5867 5867 5867 5867 5866 5866 5866 5866 5866 5865 5865 5865 5864 5864 5864 5864 5863 5863 5863 5863 5863 5861 5861 5861 5860 5860 5861 5860 5858 5858 5857 5856 5855 5855 5856 5855 5855 5854 5854 5853 5853 5852 5851 5850 5851 5851 5848 5847 5846 5845 5845 5845 5845 5846 5846
5857 5858 5859 5859 5860 5860 5861 5861 5862 5862 5863 5863 5863 5864 5864 5864 5865 5865 5865 5865 5866 5866 5866 5866 5866 5866 5866 5866 5866 5866 5865 5865 5865 5865 5865 5865 5864 5864 5864 5864 5864 5863 5863 5863 5862 5862 5861 5861 5861 5861 5861 5860 5860 5860 5859 5859 5859 5858 5859 5858 5857 5856 5855 5855 5854 5853 5853 5853 5853 5852 5852 5852 5851 5851 5850 5849 5848 5850 5849 5846 5844 5844 5844 5843 5843 5844 5844 5843
5855 5855 5856 5857 5857 5858 5858 5859 5859 5860 5860 5861 5861 5861 5861 5862 5862 5862 5862 5862 5863 5863 5863 5864 5864 5864 5864 5864 5864 5863 5863 5862 5862 5862 5862 5862 5861 5861 5861 5861 5861 5861 5860 5860 5860 5859 5859 5858 5858 5858 5858 5858 5857 5858 5857 5856 5856 5857 5857 5855 5855 5854 5853 5853 5852 5851 5851 5850 5850 5849 5848 5849 5849 5849 5848 5847 5847 5849 5847 5844 5842 5842 5843 5843 5842 5842 5841 5841
5852 5853 5853 5854 5854 5855 5856 5856 5856 5857 5857 5858 5858 5858 5858 5859 5859 5859 5859 5859 5860 5860 5860 5860 5860 5861 5861 5861 5861 5861 5860 5859 5858 5860 5860 5859 5858 5858 5858 5858 5858 5858 5857 5857 5857 5856 5856 5855 5855 5855 5856 5856 5855 5854 5854 5854 5853 5855 5855 5853 5852 5851 5851 5851 5850 5849 5848 5848 5848 5846 5846 5846 5845 5847 5847 5845 5846 5847 5844 5842 5840 5840 5841 5840 5841 5840 5840 5839
5849 5850 5850 5851 5851 5852 5852 5853 5853 5854 5854 5855 5855 5855 5855 5856 5856 5856 5856 5856 5856 5856 5857 5857 5857 5858 5857 5858 5858 5858 5858 5855 5853 5856 5857 5856 5856 5855 5855 5855 5855 5855 5854 5854 5854 5854 5853 5853 5853 5853 5853 5853 5852 5852 5852 5851 5850 5852 5853 5850 5849 5849 5848 5848 5848 5847 5846 5845 5844 5843 5843 5843 5842 5843 5846 5845 5843 5842 5841 5840 5839 5839 5839 5838 5839 5838 5837 5837
5846 5846 5847 5848 5848 5849 5849 5850 5850 5850 5851 5851 5851 5852 5852 5852 5852 5852 5852 5852 5853 5853 5853 5853 5854 5854 5854 5855 5855 5856 5856 5851 5849 5852 5853 5852 5852 5852 5852 5852 5851 5851 5851 5851 5851 5851 5851 5850 5850 5850 5850 5850 5850 5850 5848 5848 5848 5848 5849 5848 5847 5846 5845 5845 5845 5844 5843 5842 5841 5839 5841 5841 5838 5839 5844 5845 5840 5837 5838 5839 5837 5836 5836 5836 5836 5836 5835 5834
5843 5843 5844 5844 5845 5845 5846 5846 5846 5847 5847 5847 5848 5848 5848 5848 5848 5848 5848 5848 5849 5849 5849 5849 5850 5850 5851 5851 5851 5853 5852 5848 5846 5847 5849 5849 5849 5849 5849 5849 5848 5848 5848 5848 5848 5848 5848 5847 5847 5847 5847 5847 5847 5847 5845 5844 5845 5845 5844 5844 5844 5844 5844 5842 5842 5841 5839 5839 5838 5835 5838 5840 5836 5835 5840 5841 5836 5835 5836 5836 5835 5833 5833 5833 5833 5833 5832 5831
5839 5840 5840 5841 5841 5842 5842 5842 5843 5843 5843 5844 5844 5844 5844 5844 5844 5844 5845 5845 5845 5845 5845 5846 5846 5846 5847 5847 5848 5850 5848 5844 5843 5844 5845 5845 5846 5846 5846 5845 5845 5845 5845 5845 5845 5844 5844 5843 5844 5843 5843 5844 5843 5843 5842 5840 5841 5841 5839 5839 5841 5840 5841 5840 5839 5838 5836 5835 5835 5832 5832 5836 5834 5832 5836 5838 5832 5832 5833 5833 5833 5832 5831 5830 5830 5830 5829 5828
5836 5836 5837 5837 5838 5838 5839 5839 5839 5840 5840 5840 5840 5841 5841 5841 5841 5841 5841 5841 5841 5841 5841 5842 5842 5842 5843 5844 5845 5846 5843 5841 5841 5840 5841 5841 5842 5842 5843 5842 5842 5842 5842 5842 5842 5841 5840 5840 5840 5839 5839 5840 5840 5839 5838 5838 5837 5837 5836 5835 5837 5836 5836 5838 5835 5834 5833 5831 5832 5829 5826 5830 5832 5830 5832 5833 5830 5829 5829 5830 5829 5829 5830 5828 5827 5826 5825 5825
5832 5832 5833 5834 5834 5835 5835 5836 5836 5836 5836 5837 5837 5837 5837 5837 5837 5838 5838 5838 5838 5838 5838 5838 5839 5839 5839 5841 5842 5841 5840 5839 5838 5837 5837 5838 5838 5839 5839 5839 5839 5839 5838 5838 5839 5838 5837 5836 5836 5836 5835 5836 5836 5835 5835 5835 5833 5833 5832 5829 5832 5832 5832 5834 5831 5830 5831 5828 5828 5826 5820 5823 5828 5828 5829 5828 5827 5827 5826 5826 5826 5825 5825 5825 5825 5823 5822 5821
5827 5828 5829 5830 5830 5831 5831 5832 5832 5833 5833 5833 5833 5834 5834 5834 5834 5834 5834 5834 5834 5834 5834 5835 5835 5836 5836 5839 5840 5838 5837 5837 5836 5835 5834 5834 5835 5835 5835 5835 5835 5835 5835 5834 5835 5834 5833 5833 5832 5832 5832 5832 5832 5831 5831 5831 5828 5830 5829 5824 5826 5827 5827 5830 5828 5827 5828 5825 5824 5821 5815 5817 5820 5822 5826 5824 5824 5824 5822 5823 5823 5822 5821 5821 5821 5820 5819 5818
5823 5824 5825 5825 5826 5826 5827 5828 5828 5829 5829 5829 5830 5830 5830 5830 5830 5830 5830 5830 5830 5830 5830 5831 5832 5832 5833 5836 5836 5835 5834 5833 5833 5832 5831 5832 5832 5832 5832 5832 5831 5831 5831 5831 5830 5830 5830 5829 5828 5828 5828 5828 5828 5827 5827 5826 5824 5826 5826 5821 5820 5820 5822 5826 5824 5824 5825 5822 5820 5817 5811 5811 5815 5817 5820 5821 5820 5820 5818 5818 5819 5819 5819 5818 5817 5815 5815 5815
5819 5819 5820 5821 5821 5822 5823 5823 5824 5824 5825 5825 5825 5825 5826 5826 5826 5826 5826 5826 5826 5826 5826 5827 5827 5827 5828 5832 5833 5831 5831 5830 5830 5829 5828 5828 5828 5829 5828 5828 5828 5828 5827 5827 5827 5826 5826 5825 5824 5824 5824 5823 5824 5823 5822 5820 5820 5822 5821 5817 5816 5814 5815 5819 5819 5820 5822 5820 5816 5813 5808 5807 5811 5813 5814 5816 5817 5814 5813 5814 5814 5815 5815 5815 5814 5811 5810 5810
5814 5815 5816 5816 5817 5818 5818 5819 5819 5820 5820 5820 5821 5821 5821 5822 5822 5822 5822 5822 5823 5823 5823 5823 5823 5823 5823 5827 5828 5827 5827 5827 5826 5825 5825 5825 5825 5825 5825 5824 5824 5824 5823 5823 5822 5821 5822 5821 5820 5820 5819 5819 5821 5819 5816 5815 5816 5818 5815 5811 5812 5812 5810 5811 5813 5813 5816 5816 5812 5808 5805 5804 5807 5809 5808 5812 5813 5809 5808 5811 5811 5810 5810 5811 5810 5808 5807 5805
5810 5811 5811 5812 5813 5813 5814 5814 5815 5815 5815 5816 5816 5816 5817 5817 5817 5818 5818 5818 5818 5819 5819 5818 5819 5818 5818 5821 5823 5823 5823 5823 5821 5821 5821 5821 5821 5821 5821 5820 5819 5819 5819 5818 5818 5817 5817 5816 5815 5815 5814 5816 5818 5815 5811 5810 5812 5813 5810 5807 5807 5807 5807 5806 5807 5808 5808 5808 5806 5803 5801 5801 5803 5804 5803 5806 5807 5804 5803 5806 5808 5807 5806 5806 5805 5804 5803 5801
5806 5806 5807 5807 5808 5808 5809 5809 5810 5810 5811 5811 5811 5812 5812 5812 5813 5813 5813 5814 5814 5815 5814 5814 5815 5814 5814 5815 5817 5818 5819 5818 5817 5816 5816 5817 5817 5816 5816 5816 5815 5815 5814 5814 5813 5813 5813 5811 5810 5810 5811 5813 5814 5811 5807 5806 5807 5806 5805 5804 5802 5802 5803 5803 5803 5805 5804 5801 5800 5799 5798 5797 5796 5797 5799 5800 5801 5800 5798 5800 5802 5803 5802 5801 5800 5799 5799 5797
5802 5802 5802 5803 5803 5803 5804 5804 5805 5805 5806 5806 5806 5807 5807 5807 5808 5808 5808 5809 5810 5810 5809 5809 5811 5810 5809 5810 5811 5813 5814 5813 5812 5812 5813 5813 5812 5812 5811 5811 5811 5811 5809 5810 5809 5807 5809 5807 5804 5805 5807 5809 5809 5807 5804 5803 5802 5801 5801 5800 5799 5798 5798 5799 5801 5802 5800 5796 5795 5795 5795 5795 5792 5792 5795 5796 5796 5795 5795 5794 5795 5797 5796 5795 5794 5793 5793 5793
5797 5797 5797 5798 5798 5798 5798 5799 5799 5800 5800 5801 5802 5802 5802 5802 5803 5802 5803 5805 5806 5805 5804 5804 5805 5806 5806 5805 5804 5807 5808 5808 5808 5809 5810 5809 5808 5807 5806 5806 5807 5806 5806 5805 5803 5803 5805 5803 5799 5801 5803 5804 5803 5802 5800 5799 5798 5797 5797 5796 5795 5794 5793 5795 5796 5796 5794 5791 5791 5792 5790 5790 5789 5790 5791 5791 5791 5790 5790 5790 5790 5790 5790 5790 5788 5787 5788 5788
5791 5792 5792 5792 5792 5793 5793 5793 5794 5794 5795 5796 5796 5797 5796 5797 5798 5796 5797 5800 5801 5801 5800 5799 5799 5801 5803 5800 5798 5802 5803 5802 5803 5805 5805 5805 5804 5803 5802 5802 5802 5802 5802 5799 5797 5798 5800 5798 5796 5796 5797 5799 5800 5797 5794 5792 5793 5792 5792 5791 5790 5789 5789 5791 5790 5788 5787 5786 5786 5787 5785 5783 5783 5786 5786 5786 5787 5786 5786 5787 5785 5784 5783 5783 5782 5782 5783 5784
5786 5786 5786 5786 5787 5787 5787 5788 5789 5789 5790 5790 5790 5791 5791 5791 5792 5791 5791 5793 5796 5796 5795 5795 5794 5794 5796 5794 5794 5797 5796 5796 5798 5799 5800 5800 5800 5799 5797 5797 5797 5797 5796 5794 5794 5794 5793 5793 5793 5792 5792 5794 5794 5792 5790 5788 5788 5788 5786 5785 5784 5785 5785 5785 5784 5782 5780 5779 5779 5780 5779 5777 5778 5779 5779 5779 5781 5781 5779 5780 5779 5778 5777 5775 5775 5775 5776 5778
5780 5781 5781 5781 5781 5781 5782 5782 5783 5783 5784 5784 5785 5785 5785 5785 5786 5786 5785 5785 5789 5791 5790 5790 5789 5788 5789 5788 5790 5792 5791 5791 5791 5793 5795 5795 5794 5793 5791 5792 5792 5792 5791 5789 5790 5790 5788 5788 5788 5786 5787 5789 5787 5787 5787 5785 5784 5783 5782 5781 5780 5781 5779 5778 5777 5777 5776 5774 5772 5771 5771 5771 5773 5774 5773 5772 5774 5772 5770 5770 5770 5770 5770 5768 5767 5767 5767 5768
5775 5775 5775 5775 5776 5776 5776 5777 5777 5777 5778 5779 5780 5779 5780 5780 5779 5779 5779 5778 5780 5784 5785 5785 5783 5782 5782 5783 5784 5785 5785 5786 5786 5787 5789 5789 5788 5787 5787 5786 5786 5787 5786 5784 5784 5785 5784 5784 5783 5781 5780 5780 5781 5782 5782 5781 5780 5780 5779 5778 5777 5777 5775 5773 5772 5771 5771 5770 5768 5766 5764 5766 5768 5769 5768 5769 5768 5765 5763 5764 5763 5762 5763 5761 5761 5761 5760 5760
5769 5769 5769 5770 5770 5770 5771 5771 5771 5773 5774 5774 5774 5774 5774 5774 5774 5773 5773 5772 5772 5775 5778 5779 5778 5777 5776 5777 5778 5779 5779 5780 5780 5781 5782 5782 5781 5782 5782 5781 5780 5781 5781 5779 5778 5779 5780 5780 5780 5778 5775 5774 5774 5775 5776 5775 5775 5775 5775 5774 5773 5772 5771 5770 5768 5766 5765 5765 5764 5762 5759 5760 5764 5765 5765 5766 5764 5760 5758 5760 5760 5758 5757 5756 5757 5757 5756 5756
5763 5763 5764 5765 5765 5765 5765 5766 5766 5767 5768 5768 5768 5768 5768 5768 5768 5768 5767 5766 5766 5768 5769 5770 5772 5772 5772 5772 5773 5774 5774 5774 5775 5775 5775 5775 5775 5775 5775 5775 5775 5775 5774 5774 5774 5774 5774 5775 5775 5774 5772 5771 5770 5770 5769 5769 5769 5769 5770 5770 5769 5767 5766 5765 5764 5762 5761 5760 5759 5758 5755 5754 5757 5760 5760 5760 5758 5755 5754 5755 5754 5754 5753 5752 5752 5753 5752 5751
5758 5758 5758 5759 5759 5760 5760 5761 5761 5761 5761 5762 5763 5762 5762 5762 5762 5762 5762 5761 5760 5761 5760 5762 5765 5767 5768 5768 5768 5768 5768 5769 5769 5769 5770 5769 5769 5769 5768 5769 5769 5769 5769 5769 5768 5768 5769 5769 5769 5768 5768 5767 5767 5766 5765 5764 5764 5764 5764 5764 5763 5763 5762 5760 5759 5758 5757 5756 5755 5755 5753 5751 5752 5754 5754 5753 5750 5748 5750 5751 5750 5749 5748 5748 5747 5747 5747 5746
5752 5752 5753 5754 5755 5755 5755 5755 5756 5755 5756 5757 5757 5757 5757 5757 5757 5758 5758 5756 5754 5754 5754 5756 5758 5760 5762 5762 5763 5763 5763 5763 5763 5763 5764 5763 5762 5763 5762 5763 5763 5764 5764 5764 5763 5763 5764 5764 5763 5763 5763 5763 5763 5762 5761 5760 5759 5759 5759 5758 5758 5757 5756 5755 5754 5753 5752 5750 5751 5751 5750 5749 5749 5750 5748 5745 5742 5742 5743 5746 5747 5745 5743 5743 5742 5740 5741 5741
5746 5747 5748 5749 5750 5750 5750 5749 5750 5750 5751 5751 5752 5752 5752 5753 5753 5753 5753 5750 5748 5747 5749 5752 5753 5754 5755 5756 5757 5758 5758 5758 5757 5757 5757 5757 5757 5757 5757 5757 5758 5758 5759 5759 5759 5758 5758 5758 5758 5758 5759 5758 5758 5757 5756 5756 5754 5754 5754 5753 5753 5752 5751 5750 5748 5748 5746 5745 5747 5747 5745 5744 5744 5745 5744 5741 5737 5737 5738 5740 5741 5740 5738 5738 5737 5735 5735 5736
5741 5742 5743 5743 5744 5745 5745 5744 5745 5745 5746 5747 5747 5747 5747 5748 5748 5748 5746 5744 5744 5744 5745 5747 5748 5749 5750 5751 5751 5752 5752 5751 5751 5751 5751 5751 5751 5751 5751 5752 5752 5752 5752 5753 5754 5753 5752 5753 5752 5753 5753 5752 5753 5752 5751 5751 5750 5750 5750 5749 5748 5747 5746 5744 5743 5742 5740 5741 5742 5742 5739 5738 5738 5739 5739 5738 5735 5734 5735 5737 5736 5734 5733 5731 5730 5730 5730 5730
5736 5736 5737 5738 5738 5739 5740 5740 5740 5741 5741 5742 5742 5742 5742 5742 5743 5741 5738 5739 5741 5741 5741 5742 5744 5745 5746 5746 5745 5745 5745 5744 5745 5746 5746 5746 5746 5746 5746 5746 5746 5746 5745 5746 5747 5747 5747 5748 5747 5747 5747 5746 5746 5746 5746 5745 5744 5744 5744 5743 5742 5741 5739 5737 5737 5736 5735 5737 5738 5736 5733 5731 5732 5734 5735 5734 5733 5729 5729 5733 5732 5729 5728 5728 5726 5726 5726 5726
5729 5730 5731 5732 5733 5733 5734 5735 5736 5736 5736 5737 5737 5736 5736 5735 5735 5733 5732 5735 5736 5736 5737 5738 5739 5740 5740 5739 5739 5739 5739 5738 5739 5740 5740 5740 5741 5741 5741 5740 5740 5740 5740 5740 5741 5741 5742 5742 5741 5741 5742 5741 5740 5740 5740 5739 5739 5738 5738 5736 5735 5734 5732 5730 5730 5729 5730 5731 5731 5729 5728 5726 5727 5730 5730 5730 5730 5725 5722 5726 5727 5724 5723 5724 5723 5722 5721 5721
5724 5725 5726 5727 5727 5727 5728 5729 5730 5731 5731 5732 5732 5731 5730 5729 5727 5726 5728 5731 5732 5732 5733 5733 5733 5734 5733 5732 5732 5732 5733 5733 5733 5733 5733 5734 5735 5735 5735 5734 5734 5733 5734 5734 5734 5735 5736 5736 5735 5736 5737 5737 5735 5735 5733 5733 5733 5731 5731 5730 5728 5728 5725 5723 5724 5724 5724 5724 5722 5723 5723 5722 5724 5726 5724 5724 5725 5722 5717 5717 5720 5719 5717 5717 5717 5716 5715 5714
5718 5719 5720 5721 5721 5721 5722 5723 5724 5726 5726 5727 5727 5726 5724 5722 5720 5721 5723 5726 5727 5727 5728 5727 5727 5728 5727 5726 5726 5726 5726 5726 5727 5728 5727 5727 5728 5729 5729 5728 5728 5727 5728 5729 5727 5727 5729 5731 5731 5731 5732 5732 5732 5730 5727 5727 5726 5725 5726 5724 5723 5723 5720 5717 5717 5717 5716 5715 5717 5720 5718 5717 5720 5722 5719 5718 5719 5718 5713 5711 5713 5714 5712 5709 5708 5708 5707 5706
5712 5713 5714 5715 5715 5715 5716 5718 5719 5720 5720 5720 5720 5719 5718 5717 5716 5717 5719 5720 5720 5720 5722 5722 5723 5722 5721 5720 5720 5721 5721 5721 5722 5722 5721 5721 5722 5723 5723 5722 5721 5721 5722 5722 5721 5721 5723 5725 5726 5725 5724 5726 5726 5724 5722 5722 5720 5719 5720 5719 5718 5719 5716 5712 5710 5711 5711 5707 5710 5716 5715 5714 5717 5718 5716 5713 5713 5713 5709 5707 5707 5704 5704 5703 5701 5700 5699 5698
5706 5707 5708 5709 5709 5710 5711 5712 5713 5713 5713 5714 5712 5712 5714 5714 5713 5713 5713 5714 5714 5715 5715 5715 5716 5716 5715 5716 5715 5715 5716 5716 5717 5717 5717 5718 5717 5718 5719 5717 5715 5715 5715 5715 5714 5714 5716 5718 5720 5719 5716 5717 5719 5717 5716 5717 5715 5713 5715 5715 5713 5712 5710 5706 5702 5705 5705 5699 5703 5711 5710 5710 5711 5711 5712 5708 5705 5706 5704 5702 5700 5696 5696 5695 5693 5692 5691 5689
5700 5700 5702 5702 5702 5703 5704 5706 5706 5705 5706 5706 5705 5708 5710 5710 5709 5708 5708 5709 5709 5709 5709 5708 5709 5711 5711 5711 5710 5709 5710 5711 5711 5712 5712 5712 5712 5713 5714 5712 5710 5709 5708 5708 5707 5707 5708 5711 5713 5713 5710 5709 5712 5711 5709 5710 5709 5706 5707 5709 5707 5704 5703 5701 5695 5696 5697 5691 5693 5702 5703 5704 5705 5703 5703 5699 5695 5697 5696 5693 5691 5689 5688 5686 5684 5683 5682 5682
5693 5694 5695 5696 5696 5696 5698 5698 5698 5698 5698 5698 5700 5703 5704 5705 5706 5704 5703 5704 5704 5703 5703 5702 5704 5705 5705 5705 5704 5702 5703 5705 5705 5705 5706 5706 5705 5707 5708 5705 5705 5705 5703 5703 5701 5700 5700 5703 5707 5708 5704 5702 5706 5706 5703 5701 5702 5700 5698 5699 5699 5696 5695 5696 5690 5687 5688 5683 5683 5689 5692 5697 5699 5695 5693 5690 5686 5686 5685 5683 5681 5681 5680 5679 5677 5675 5674 5673
5685 5687 5688 5689 5689 5690 5691 5690 5690 5691 5690 5691 5695 5697 5697 5699 5700 5698 5697 5698 5698 5697 5696 5697 5697 5698 5698 5699 5698 5695 5696 5698 5698 5697 5698 5699 5698 5700 5700 5698 5699 5699 5698 5697 5696 5694 5694 5693 5697 5703 5701 5697 5698 5700 5697 5694 5693 5693 5691 5690 5691 5689 5688 5688 5685 5682 5680 5675 5674 5676 5678 5686 5691 5687 5685 5683 5679 5677 5676 5674 5672 5672 5671 5670 5669 5668 5667 5666
5678 5680 5683 5683 5682 5682 5683 5683 5683 5683 5683 5686 5689 5689 5689 5691 5692 5691 5691 5692 5691 5690 5690 5690 5690 5690 5691 5692 5692 5690 5689 5691 5691 5690 5689 5691 5690 5690 5692 5692 5692 5691 5690 5689 5688 5687 5686 5683 5685 5693 5695 5691 5691 5693 5690 5686 5684 5684 5684 5683 5683 5681 5680 5678 5676 5678 5676 5669 5667 5667 5666 5674 5682 5679 5676 5675 5672 5671 5669 5667 5664 5663 5662 5661 5660 5660 5660 5659
5671 5673 5676 5677 5675 5675 5675 5674 5676 5677 5678 5681 5682 5681 5682 5683 5685 5685 5684 5685 5685 5684 5683 5683 5683 5684 5685 5685 5686 5686 5683 5683 5685 5685 5683 5684 5683 5681 5682 5684 5684 5684 5683 5681 5679 5679 5677 5673 5673 5679 5684 5685 5685 5684 5680 5677 5676 5676 5674 5674 5675 5674 5672 5669 5666 5670 5671 5663 5661 5660 5656 5662 5672 5672 5669 5667 5665 5664 5663 5659 5657 5656 5655 5654 5652 5651 5651 5651
5663 5664 5668 5668 5666 5667 5666 5667 5669 5669 5671 5675 5676 5675 5676 5675 5676 5678 5678 5678 5680 5679 5678 5677 5678 5677 5678 5679 5679 5678 5677 5676 5678 5679 5678 5679 5678 5674 5675 5677 5676 5677 5677 5673 5672 5672 5670 5666 5665 5667 5672 5677 5679 5678 5673 5668 5669 5669 5665 5665 5668 5667 5666 5663 5658 5660 5661 5656 5655 5654 5647 5650 5662 5665 5662 5660 5659 5657 5654 5652 5651 5648 5647 5646 5645 5643 5642 5641
5654 5655 5659 5659 5659 5659 5658 5660 5663 5662 5664 5669 5669 5668 5669 5668 5669 5671 5670 5671 5672 5673 5672 5672 5673 5671 5670 5671 5671 5671 5670 5668 5669 5672 5671 5671 5671 5668 5669 5670 5669 5669 5668 5665 5664 5665 5663 5660 5657 5657 5661 5666 5671 5672 5667 5661 5660 5661 5659 5658 5660 5659 5659 5657 5653 5652 5650 5647 5649 5646 5638 5642 5652 5655 5653 5652 5650 5649 5646 5644 5644 5642 5640 5638 5637 5635 5633 5631
5645 5645 5650 5651 5651 5650 5650 5653 5656 5655 5658 5661 5660 5661 5662 5661 5662 5664 5664 5663 5664 5665 5665 5665 5666 5664 5663 5664 5663 5664 5663 5659 5660 5663 5664 5662 5662 5662 5663 5662 5661 5661 5660 5657 5657 5657 5656 5654 5651 5649 5650 5654 5661 5665 5661 5655 5653 5653 5652 5652 5653 5653 5654 5650 5648 5646 5639 5637 5641 5637 5630 5636 5643 5643 5644 5644 5640 5638 5637 5635 5635 5634 5633 5631 5628 5626 5624 5622
5636 5637 5641 5643 5642 5642 5644 5647 5647 5647 5651 5652 5651 5654 5655 5654 5656 5657 5656 5655 5655 5657 5657 5656 5657 5657 5656 5656 5655 5656 5656 5653 5651 5654 5656 5655 5653 5654 5656 5654 5653 5654 5651 5650 5651 5649 5648 5647 5646 5643 5641 5643 5649 5655 5654 5649 5645 5644 5646 5646 5646 5648 5648 5644 5641 5638 5632 5629 5631 5628 5625 5630 5635 5635 5637 5635 5628 5626 5626 5626 5626 5625 5623 5622 5620 5617 5615 5613
5629 5629 5633 5634 5633 5634 5638 5640 5639 5640 5643 5643 5643 5646 5647 5646 5648 5649 5647 5646 5647 5648 5648 5647 5649 5649 5648 5648 5648 5649 5649 5647 5645 5645 5648 5647 5645 5646 5647 5646 5646 5646 5644 5644 5643 5642 5640 5639 5640 5638 5634 5635 5638 5642 5645 5640 5635 5634 5637 5640 5641 5642 5640 5636 5631 5628 5625 5620 5618 5621 5622 5620 5623 5629 5629 5624 5619 5615 5615 5616 5616 5615 5614 5612 5611 5608 5606 5605
5621 5621 5625 5626 5625 5626 5631 5633 5632 5633 5635 5634 5634 5637 5639 5638 5638 5638 5639 5638 5639 5640 5639 5639 5640 5640 5639 5641 5641 5640 5641 5640 5638 5639 5641 5639 5637 5637 5639 5639 5639 5638 5638 5637 5635 5634 5632 5631 5635 5632 5627 5628 5630 5630 5633 5631 5626 5625 5627 5631 5634 5634 5632 5628 5622 5618 5617 5609 5605 5614 5618 5609 5610 5618 5617 5613 5610 5606 5605 5605 5605 5605 5604 5602 5600 5598 5597 5596
5613 5613 5616 5618 5617 5618 5622 5626 5625 5625 5625 5624 5625 5627 5629 5629 5628 5628 5629 5631 5630 5631 5631 5631 5632 5632 5631 5633 5632 5630 5632 5631 5630 5632 5634 5632 5629 5629 5630 5632 5631 5631 5631 5628 5627 5627 5623 5623 5628 5624 5619 5622 5623 5621 5622 5620 5616 5617 5619 5621 5625 5626 5625 5620 5614 5612 5610 5600 5596 5604 5606 5599 5600 5605 5603 5599 5599 5597 5596 5596 5595 5594 5593 5591 5589 5588 5587 5586
5605 5606 5606 5608 5609 5610 5614 5617 5616 5614 5615 5616 5615 5619 5621 5620 5619 5619 5619 5621 5623 5623 5623 5622 5624 5625 5624 5624 5623 5621 5622 5623 5622 5624 5625 5624 5623 5622 5622 5623 5623 5623 5624 5621 5619 5618 5615 5616 5618 5614 5611 5615 5617 5614 5611 5607 5605 5608 5611 5613 5615 5616 5615 5611 5607 5606 5602 5593 5589 5592 5589 5587 5592 5592 5588 5586 5587 5587 5586 5584 5584 5583 5582 5580 5579 5577 5576 5574
5597 5598 5597 5598 5600 5603 5605 5607 5607 5604 5606 5607 5607 5612 5614 5611 5612 5611 5608 5611 5615 5615 5615 5614 5614 5616 5615 5615 5615 5613 5613 5614 5614 5614 5615 5615 5615 5615 5614 5614 5614 5615 5615 5614 5611 5609 5608 5608 5608 5605 5602 5606 5611 5608 5601 5596 5596 5598 5602 5606 5608 5607 5605 5602 5599 5598 5593 5585 5583 5581 5575 5575 5580 5579 5574 5574 5576 5576 5574 5572 5572 5571 5570 5568 5566 5564 5563 5561
5589 5589 5588 5588 5590 5593 5595 5597 5598 5595 5596 5599 5602 5605 5604 5603 5606 5604 5598 5601 5607 5607 5606 5606 5606 5607 5606 5606 5606 5605 5605 5606 5606 5606 5606 5607 5607 5607 5606 5606 5606 5607 5607 5606 5603 5602 5601 5599 5599 5596 5590 5595 5605 5601 5590 5588 5588 5587 5593 5601 5602 5598 5594 5592 5589 5587 5583 5579 5576 5572 5566 5565 5565 5562 5561 5564 5566 5565 5563 5562 5560 5558 5555 5552 5550 5550 5550 5547
5580 5579 5579 5579 5580 5584 5587 5588 5587 5586 5589 5593 5595 5596 5595 5595 5598 5596 5590 5594 5598 5598 5598 5598 5598 5598 5597 5597 5598 5597 5597 5599 5599 5598 5598 5598 5598 5598 5598 5598 5599 5599 5599 5598 5595 5595 5594 5590 5590 5588 5581 5584 5596 5591 5581 5578 5576 5579 5590 5595 5592 5588 5584 5580 5578 5578 5577 5574 5567 5562 5558 5555 5550 5547 5548 5553 5554 5553 5552 5550 5547 5543 5538 5535 5534 5536 5535 5531